DL3CSM-13 Weather Reports


time (UTC)temp
F
wind
direction
speed
knots
gust
knots
rain 1hr
in
rain 24hr
in
rain mn
in
humidity
%
barometer
mb
20260507061511 50 225 5.2 10.4 0.00 0.00 0.35 76 1012.9
20260507060011 50 219 3.5 7.8 0.00 0.00 0.35 78 1012.8
20260507051511 49 227 3.5 5.2 0.00 0.00 0.35 79 1012.6
20260507043011 47 220 1.7 3.5 0.00 0.00 0.35 82 1011.9
20260507040011 45 208 0.9 1.7 0.00 0.00 0.35 85 1011.9
20260507030011 46 215 0.9 1.7 0.00 0.00 0.35 82 1011.6
20260507024511 46 226 1.7 2.6 0.00 0.00 0.35 82 1011.4
20260507023011 47 213 0.9 2.6 0.00 0.00 0.35 81 1011.3
20260507021511 47 224 1.7 2.6 0.00 0.00 0.35 81 1011.4
20260507000011 49 229 3.5 4.3 0.00 0.00 0.35 78 1011.0
20260506233011 50 228 2.6 4.3 0.00 0.00 0.35 78 1010.8
20260506230011 50 223 2.6 4.3 0.00 0.00 0.35 77 1010.9
20260506224511 50 228 3.5 6.1 0.00 0.00 0.35 77 1010.8
20260506190011 52 219 5.2 9.6 0.00 0.35 0.35 73 1009.0
20260506174511 54 228 8.7 12.2 0.00 0.35 0.35 76 1007.8
20260506151511 54 186 0.9 1.7 0.20 0.20 0.21 82 1006.7
20260506150011 55 220 4.3 7.8 0.15 0.15 0.16 77 1006.4
20260506144511 61 222 6.1 9.6 0.09 0.09 0.10 72 1005.9
20260506143011 65 95 0.0 1.7 0.00 0.00 0.01 57 1005.0
20260506140011 67 0 0.0 0.0 0.00 0.00 0.01 50 1004.7
20260506134511 68 13 0.9 3.5 0.00 0.00 0.01 50 1004.7
20260506133011 69 8 0.0 1.7 0.00 0.00 0.01 50 1004.7
20260506131511 68 22 0.9 2.6 0.00 0.00 0.01 51 1004.9
20260506130011 67 1 0.0 3.5 0.00 0.00 0.01 52 1005.2
20260506123011 69 6 1.7 4.3 0.00 0.00 0.01 50 1005.3
20260506121511 68 340 0.9 2.6 0.00 0.00 0.01 51 1005.7
20260506114511 66 10 0.0 1.7 0.00 0.00 0.01 53 1005.8
20260506113011 66 337 0.0 1.7 0.00 0.00 0.01 52 1006.0
20260506111511 66 65 0.9 2.6 0.00 0.00 0.01 53 1006.1
20260506104511 65 9 0.0 2.6 0.00 0.00 0.01 54 1006.9
20260506103011 65 100 0.0 2.6 0.00 0.00 0.01 54 1006.9
20260506101511 65 73 0.0 1.7 0.00 0.00 0.01 55 1006.9
20260506100011 65 72 0.0 0.9 0.00 0.00 0.01 55 1007.0
20260506094511 65 35 0.0 0.0 0.00 0.00 0.01 56 1007.1
20260506093011 64 43 0.0 0.9 0.00 0.00 0.01 58 1007.1
20260506084511 63 11 0.0 1.7 0.00 0.00 0.01 59 1007.0
20260506083011 62 0 0.0 0.0 0.00 0.00 0.01 59 1007.2
20260506081511 62 170 0.0 2.6 0.00 0.00 0.01 59 1007.3
20260506073011 58 0 0.0 0.0 0.00 0.00 0.01 68 1007.5
20260506071511 57 245 0.0 0.9 0.00 0.00 0.01 69 1007.6